Flag for Vietnam Weather past 2 weeks in Hanoi, Vietnam

Now
79 °F

Clear.


Feels Like: 82 °F
Forecast: 80 / 90 °F
Wind: 5 mph from Northeast

Location: Ha Noi Airport

Current Time: Sep 1, 2015 at 7:10:18 AM

Latest Report: Sep 1, 2015 at 6:30 AM


Visibility: 4 mi

Pressure: 29.68 "Hg

Humidity: 84%

Dew point: 73 °F

Location of HanoiLocation

Historic Weather in Hanoi — Graph

°F

Hanoi temperature yesterday

Maximum temperature yesterday: 90 °F (at 11:00 AM)
Minimum temperature yesterday: 77 °F (at 5:30 AM)
Average temperature yesterday: 83 °F

Past Weeks' High & Low Weather Summary

 TemperatureHumidityPressure
High100 °F (Aug 17, 3:30 PM)100% (Aug 19, 11:00 PM)29.83 "Hg (Aug 19, 11:00 PM)
Low77 °F (Aug 19, 10:30 PM)39% (Aug 17, 4:30 PM)29.50 "Hg (Aug 23, 5:00 PM)
Average87 °F72%29.66 "Hg
* Reported Aug 17 6:00 AM — Sep 1 6:00 AM, Hanoi, Weather by CustomWeather, © 2015

Note: Actual official high and low records may vary slightly from our data, if they occured in-between our weather recording intervals... More about our weather records

Advertising

Hanoi weather history for previous 24 hours

 ConditionsComfort  
Time TempWeatherWind HumidityBarometerVisibility
6:00 AM
Tue, Sep 1
79 °FClear.5 mph84%29.68 "Hg4 mi
5:30 AM79 °FClear.5 mph84%29.68 "Hg4 mi
4:30 AM79 °FClear.3 mph89%29.68 "Hg6 mi
4:00 AM79 °FClear.3 mph89%29.68 "Hg6 mi
3:30 AM79 °FClear.2 mph89%29.68 "Hg10 mi
3:00 AM79 °FClear.1 mph89%29.68 "Hg10 mi
2:30 AM79 °FClear.No wind84%29.68 "Hg10 mi
2:00 AM79 °FClear.1 mph89%29.68 "Hg10 mi
1:30 AM79 °FClear.1 mph84%29.71 "Hg10 mi
1:00 AM81 °FClear.3 mph79%29.71 "Hg10 mi
12:30 AM81 °FClear.1 mph74%29.71 "Hg4 mi
12:00 AM81 °FClear.1 mph79%29.71 "Hg10 mi
11:30 PM
Mon, Aug 31
81 °FClear.3 mph74%29.71 "Hg10 mi
11:00 PM81 °FClear.3 mph74%29.71 "Hg10 mi
10:30 PM81 °FClear.6 mph79%29.71 "Hg10 mi
10:00 PM81 °FPassing clouds.5 mph79%29.71 "HgN/A
9:30 PM82 °FClear.5 mph79%29.71 "Hg10 mi
9:00 PM82 °FClear.6 mph74%29.71 "Hg10 mi
8:30 PM82 °FClear.7 mph74%29.71 "Hg10 mi
8:00 PM84 °FClear.3 mph74%29.68 "Hg10 mi
7:30 PM84 °FClear.5 mph74%29.68 "Hg10 mi
7:00 PM84 °FClear.1 mph74%29.68 "Hg10 mi
6:30 PM84 °FClear.3 mph74%29.65 "Hg10 mi
6:00 PM84 °FSunny.2 mph74%29.65 "Hg10 mi
5:30 PM86 °FSunny.3 mph70%29.65 "Hg10 mi
5:00 PM88 °FBroken clouds.5 mph62%29.65 "HgN/A
4:30 PM88 °FScattered clouds.7 mph62%29.62 "HgN/A
4:00 PM88 °FScattered clouds.3 mph62%29.62 "HgN/A
3:30 PM90 °FBroken clouds.5 mph59%29.65 "HgN/A
3:00 PM90 °FBroken clouds.5 mph59%29.65 "HgN/A
2:30 PM90 °FBroken clouds.3 mph67%29.65 "HgN/A
2:00 PM86 °FBroken clouds.7 mph75%29.68 "HgN/A
1:30 PM84 °FBroken clouds.8 mph74%29.68 "HgN/A
1:00 PM82 °FBroken clouds.7 mph79%29.71 "HgN/A
12:30 PM82 °FLight rain. Broken clouds.3 mph84%29.71 "HgN/A
12:00 PM86 °FRain. Fog.8 mph70%29.71 "Hg2 mi
11:30 AM90 °FBroken clouds.3 mph59%29.71 "HgN/A
11:00 AM90 °FBroken clouds.7 mph59%29.71 "HgN/A
10:30 AM86 °FPartly sunny.7 mph66%29.74 "HgN/A
10:00 AM88 °FPartly sunny.7 mph66%29.74 "HgN/A
9:30 AM86 °FClear.6 mph66%29.74 "Hg5 mi
9:00 AM84 °FClear.3 mph74%29.74 "Hg4 mi
8:30 AM84 °FPassing clouds.5 mph70%29.74 "HgN/A
8:00 AM82 °FClear.3 mph79%29.71 "Hg5 mi
7:30 AM81 °FClear.5 mph84%29.71 "Hg5 mi
7:00 AM79 °FClear.2 mph89%29.71 "Hg5 mi
Weather by CustomWeather, © 2015

See weather overviewHow to use our weather pages